GSAT-8 (37605 NORAD) Tracking and Keplerian Element Data

This shows tracking and keplerian element data for the satellite.

Feedback or suggestion? Click here.




ElementValue
Catalog37605
NameGSAT-8
Epoch Orbit3494
Epoch Day171.5131705
Epoch Year2021
RAAN123.4534
Inclination0.0393
Eccentricity0.0002474
Argument of Perigee184.2376
Mean Anonmoly201.0738
Mean Motion1.00273067
Decay Rate9.1E-07
L11 37605U 11022A 21171.51317050 .00000091 00000-0 00000-0 0 9991
L22 37605 0.0393 123.4534 0002474 184.2376 201.0738 1.00273067 34945

Live tracking and technical data element details for GSAT-8 (NORAD 37605). GSAT-8 can be tracked NOW for your location showing map with azimuth and elevation plus other details from your city location.

Track the satellite on the map from your city or location and see movement details for azimuth, elevation, latitude, longitude, range, height, and movement on the map or in text.







IsCatalogInMostPopularTable: catalog: 37605, numindb: 386
Update: records affected: 1



GetName: 37605 GSAT-8

Hit Count: updated at: Mon, 21 Jun 2021 14:18:56 GMT